Location: Lake Almanor
(40.2485°N, 121.1442°W)
Time: 00:08:19
(UTC-08:00)

STARLINK-1112 - Pass Details

Date: 28 January 2020
Orbit: 548 x 551 km, 53.0° (Epoch: 23 February)

Event Time Altitude Azimuth Distance (km) Brightness Sun altitude
Rises 17:48:01 0° 312° (NW) 2,716 7.6 -6.2°
Reaches altitude 10° 17:50:48 10° 331° (NNW) 1,820 6.4 -6.7°
Maximum altitude 17:53:45 19° 17° (NNE) 1,355 5.3 -7.2°
Drops below altitude 10° 17:56:42 10° 63° (ENE) 1,817 5.6 -7.8°
Enters shadow 17:56:49 10° 64° (ENE) 1,848 5.6 -7.8°
